Showing default

JILIN-01-04, 43022

Orbit data source: Space-Track

JILIN-01-04, 43022 is a payload satellite owned by Changguang WJ (CN) in SSO that was launched on Tue, 21 Nov 2017 UTC via a CHANG ZHENG 6 launch vehicle from the Taiyaun Space Center, China (TSC). Payloads include a variety of satellites, spacecraft, and rockets equipped with specific instruments for various scientific and technological missions. These include communications satellites like Starlink; space stations such as the ISS; scientific satellites like the Hubble; Earth observation satellites from companies like Planet Labs, Umbra, and HawkEye 360; GPS; miniature CubeSats for education and research; and military/defense satellites.

Loading next visibility...
JILIN-01-04 details
Identifier
43022, 2017-074A
Orbit
SSO
Last TLE update6 hours ago
Origin
Flag of CNChangguang WJ (CN / PRC)
ManufacturerHARB/CIOMP
MissionOperational Commercial Imaging
Bus & MotorJL-1, Unknown motor
Mass95 kg wet, 95 kg dry
Launch date (UTC)
2017-11-21 (7 years ago)
Launch vehicle
CHANG ZHENG 6
Launch site
Taiyaun Space Center, China (TSC)
Object type
Payload
Rocket body
Debris
Shape & HBRBox + 2 Pan, 1.5 m
Radar Cross Section2.000 m², Medium (>0.1 m² and < 1m²)

Expand to show TLE details & history

TLE from 6 hours ago
0 JILIN-01-04
1 43022U 17074A   24339.18391674  .00017634  00000-0  68502-3 0  9995
2 43022  97.4842  70.3889 0006440  44.5410 315.6345 15.26113127388403
Epoch: 2024-12-04T04:24Z
Definitive object data (Epoch: 2024-12-04T04:24:50.406Z)
Latitude-0°
Longitude-69.30384°
Altitude487.381 km
Speed7.623 km/s
True Right ascension04h 41m 33s
True Declination0° 00' 00"
Sunlit
Object was in full shadow at TLE epoch
Visualization TLE readout
Latitude-82.54278°
Longitude17.45065°
Altitude518.836 km
Speed7.601 km/s
Apparent Right ascension19h 45m 59s
Apparent Declination-68° 59' 12"
Sunlit
Object is in daylight
Visualization observer readout
Local Sidereal Time08:13:25
Azimuth174.982° S
Elevation-60.698°
Doppler factor1
Orbital elements
Apogee altitude488.825 km
Perigee altitude479.987 km
Semi-major axis6,862.543 km
Eccentricity0.000644
Inclination97.4842°
RAAN70.3889°
Arg. of periapsis44.541°
True anomaly315.58287°
Mean anomaly315.6345°
Eccentric anomaly315.60869°
Mean motion3.81782 °/min
BSTAR0.00068502
Orbital period94.29 mins
Loading maneuver chart data...
Loading historical data...
Loading historical data...
Loading historical data...
Loading historical data...
Loading historical data...
Loading historical data...
Loading historical data...
Other satellites on launch #74 in the year 2017 (2017-11-21 UTC)

JILIN-01-04 Visibility forecast

Observer location: undefined°, undefined

Span
Click to sort rows by Start time (UTC) header in descending order
Start Az.
Max El. time (UTC)
Max El. Az.
Max El.
End time (UTC)
End Az.
6 mins2024-12-04 19:07:59.644Z13.546° NNE2024-12-04 19:10:59.644Z41.025° NE44.408°2024-12-04 19:13:59.644Z190.554° SSW
4 mins2024-12-05 05:44:59.644Z112.524° SE2024-12-05 05:46:59.644Z56.763° ENE24.518°2024-12-05 05:48:59.644Z17.183° NNE
|